This is the latest recevied weather packets stored in our database for station/object KN6KS. If no packets are shown the sender has not sent any weather packets the latest 10 day(s).
| Time | Temp. | Humidity | Pressure | Rain* | Wind** | Luminosity | Snow |
|---|---|---|---|---|---|---|---|
| 1777744098 | 24.44° C | 25% | 1014.3 hPa | 0 mm | - | 705 W/m² | - |
| 1777743190 | 25.56° C | 23% | 1014 hPa | 0 mm | - | 596 W/m² | - |
| 1777742279 | 25° C | 25% | 1014.1 hPa | 0 mm | - | 666 W/m² | - |
| 1777741059 | 23.89° C | 27% | 1014.5 hPa | 0 mm | - | 714 W/m² | - |
| 1777739846 | 23.33° C | 30% | 1014.3 hPa | 0 mm | - | 664 W/m² | - |
| 1777739240 | 22.22° C | 33% | 1014.3 hPa | 0 mm | - | 627 W/m² | - |
| 1777738937 | 21.11° C | 33% | 1014.4 hPa | 0 mm | - | 583 W/m² | - |
| 1777738634 | 21.67° C | 33% | 1014.5 hPa | 0 mm | - | 588 W/m² | - |
| 1777738029 | 20.56° C | 33% | 1014.3 hPa | 0 mm | - | 539 W/m² | - |
| 1777736818 | 20° C | 37% | 1014.6 hPa | 0 mm | - | 433 W/m² | - |
| 1777735892 | 17.22° C | 42% | 1014.6 hPa | 0 mm | - | 342 W/m² | - |
| 1777735589 | 17.22° C | 42% | 1014.4 hPa | 0 mm | - | 316 W/m² | - |
| 1777735287 | 16.67° C | 42% | 1014.6 hPa | 0 mm | - | 290 W/m² | - |
| 1777734984 | 16.11° C | 44% | 1014.6 hPa | 0 mm | - | 261 W/m² | - |
| 1777734681 | 15.56° C | 45% | 1014.7 hPa | 0 mm | - | 250 W/m² | - |
| 1777734379 | 15° C | 46% | 1014.7 hPa | 0 mm | - | 250 W/m² | - |
| 1777734075 | 14.44° C | 48% | 1014.6 hPa | 0 mm | - | 225 W/m² | - |
| 1777733771 | 13.89° C | 49% | 1014.5 hPa | 0 mm | - | 197 W/m² | - |
| 1777733468 | 13.33° C | 50% | 1014.5 hPa | 0 mm | - | 180 W/m² | - |
| 1777733164 | 13.33° C | 51% | 1014.3 hPa | 0 mm | - | 157 W/m² | - |
| 1777732861 | 13.33° C | 51% | 1014.5 hPa | 0 mm | - | 147 W/m² | - |
| 1777732557 | 13.33° C | 50% | 1014.6 hPa | 0 mm | - | 136 W/m² | - |
| 1777732256 | 13.33° C | 50% | 1014.4 hPa | 0 mm | - | 138 W/m² | - |
| 1777731952 | 13.33° C | 50% | 1014.3 hPa | 0 mm | - | 121 W/m² | - |
| 1777731648 | 13.33° C | 49% | 1014.3 hPa | 0 mm | - | 112 W/m² | - |
* Rain latest hour (hover to see other rain measurements)
** Current wind speed in m/s (hover to see current wind gust speed)